Flag for Germany Weather past 2 weeks in Dinslaken, North Rhine-Westphalia, Germany

Now
69 °F

Overcast.


Feels Like: 69 °F
Forecast: 56 / 72 °F
Wind: 3 mph from East

Location: Essen

Current Time: Aug 31, 2015 at 5:33:38 AM

Latest Report: Aug 31, 2015 at 4:00 AM


Visibility: 41 mi

Pressure: 29.95 "Hg

Humidity: 80%

Dew point: 63 °F

Location of DinslakenLocation

Historic Weather in Dinslaken — Graph

°F

Dinslaken temperature yesterday

Maximum temperature yesterday: 87 °F (at 4:00 PM)
Minimum temperature yesterday: 63 °F (at 7:00 AM)
Average temperature yesterday: 75 °F

Past Weeks' High & Low Weather Summary

 TemperatureHumidityPressure
High87 °F (Aug 30, 4:00 PM)100% (Aug 16, 7:00 AM)30.25 "Hg (Aug 16, 7:00 AM)
Low51 °F (Aug 19, 4:00 AM)35% (Aug 23, 3:00 PM)29.53 "Hg (Aug 24, 5:00 PM)
Average64 °F75%29.98 "Hg
* Reported Aug 16 4:00 AM — Aug 31 4:00 AM, Dinslaken, Weather by CustomWeather, © 2015

Note: Actual official high and low records may vary slightly from our data, if they occured in-between our weather recording intervals... More about our weather records

Advertising

Dinslaken weather history for previous 24 hours

 ConditionsComfort  
Time TempWeatherWind HumidityBarometerVisibility
4:00 AM
Mon, Aug 31
69 °FOvercast.3 mph80%29.95 "Hg40 mi
3:00 AM70 °FOvercast.5 mph75%29.96 "Hg43 mi
2:00 AM72 °FOvercast.6 mph71%29.99 "Hg31 mi
1:00 AM75 °FOvercast.1 mph85%29.96 "Hg12 mi
12:00 AM74 °FOvercast.3 mph88%29.96 "Hg9 mi
11:00 PM
Sun, Aug 30
76 °FPassing clouds.2 mph80%29.96 "Hg16 mi
10:00 PM76 °FOvercast.2 mph83%29.98 "Hg14 mi
9:00 PM77 °FOvercast.1 mph80%29.98 "Hg12 mi
8:00 PM81 °FOvercast.1 mph67%29.97 "Hg22 mi
7:00 PM83 °FOvercast.1 mph64%29.97 "Hg22 mi
6:00 PM85 °FOvercast.2 mph58%29.96 "Hg25 mi
5:00 PM87 °FOvercast.3 mph56%29.96 "Hg22 mi
4:00 PM87 °FPartly sunny.2 mph54%29.96 "Hg25 mi
3:00 PM86 °FOvercast.3 mph55%29.97 "Hg34 mi
2:00 PM86 °FPassing clouds.2 mph57%29.98 "Hg31 mi
1:00 PM83 °FSunny.3 mph61%29.99 "Hg19 mi
12:00 PM79 °FSunny.2 mph71%30.01 "Hg19 mi
11:00 AM75 °FPassing clouds.3 mph75%30.02 "Hg19 mi
10:00 AM70 °FPassing clouds.3 mph81%30.05 "Hg14 mi
9:00 AM67 °FOvercast.5 mph86%30.05 "Hg8 mi
8:00 AM64 °FOvercast.5 mph90%30.05 "Hg7 mi
7:00 AM63 °FPassing clouds.3 mph90%30.05 "Hg8 mi
6:00 AM64 °FPassing clouds.3 mph90%30.05 "Hg8 mi
5:00 AM64 °FPassing clouds.2 mph90%30.04 "Hg9 mi
Weather by CustomWeather, © 2015

See weather overviewHow to use our weather pages